Probability
0 0 0 0 0 0 0 0 0 0 0 0 0 0 0 0 0 0 0 0 0 0 0 1 2 9 27 54 77 89 93 89 85 89 94 95 95 95
0 0 0 0 0 0 0 0 0 0 0 0 0 0 0 0 0 0 0 0 0 0 0 0 1 4 13 31 53 71 79 78 77 84 92 95 93 90
0 0 0 0 0 0 0 0 0 0 0 0 0 0 0 0 0 0 0 0 0 0 0 0 0 0 2 8 22 38 51 57 63 74 86 89 82 73
0 0 0 0 0 0 0 0 0 0 0 0 0 0 0 0 0 0 0 0 0 0 0 0 0 0 0 1 5 12 19 27 38 51 62 64 55 44
0 0 0 0 0 0 0 0 0 0 0 0 0 0 0 0 0 0 0 0 0 0 0 0 0 0 0 0 0 1 2 6 12 19 25 28 23 17
0 0 0 0 0 0 0 0 0 0 0 0 0 0 0 0 0 0 0 0 0 0 0 0 0 0 0 0 0 0 0 0 1 2 4 5 4 3
0 0 0 0 0 0 0 0 0 0 0 0 0 0 0 0 0 0 0 0 0 0 0 0 0 0 0 0 0 0 0 0 0 0 0 0 0 0
0 0 0 0 0 0 0 0 0 0 0 0 0 0 0 0 0 0 0 0 0 0 0 0 0 0 0 0 0 0 0 0 0 0 0 0 0 0
0 0 0 0 0 0 0 0 0 0 0 0 0 0 0 0 0 0 0 0 0 0 0 0 0 0 0 0 0 0 0 0 0 0 0 0 0 0
0 0 0 0 0 0 0 0 0 0 0 0 0 0 0 0 0 0 0 0 0 0 0 0 0 0 0 0 0 0 0 0 0 0 0 0 0 0
0 0 0 0 0 0 0 0 0 0 0 0 0 0 0 0 0 0 0 0 0 0 0 0 0 0 0 0 0 0 0 0 0 0 0 0 0 0
0 0 0 0 0 0 0 0 0 0 0 0 0 0 0 0 0 0 0 0 0 0 0 0 0 0 0 0 0 0 0 0 0 0 0 0 0 0
0 0 0 0 0 0 0 0 0 0 0 0 0 0 0 0 0 0 0 0 0 0 0 0 0 0 0 0 0 0 0 0 0 0 0 0 0 0
0 0 0 0 0 0 0 0 0 0 0 0 0 0 0 0 0 0 0 0 0 0 0 0 0 0 0 0 0 0 0 0 0 0 0 0 0 0
0 0 0 0 0 0 0 0 0 0 0 0 0 0 0 0 0 0 0 0 0 0 0 0 0 0 0 0 0 0 0 0 0 0 0 0 0 0
0 0 0 0 0 0 0 0 0 0 0 0 0 0 0 0 0 0 0 0 0 0 0 0 0 0 0 0 0 0 0 0 0 0 0 0 0 0
0 0 0 0 0 0 0 0 0 0 0 0 0 0 0 0 0 0 0 0 0 0 0 0 0 0 0 0 0 0 0 0 0 0 0 0 0 0
0 0 0 0 0 0 0 0 0 0 0 0 0 0 0 0 0 0 0 0 0 0 0 0 0 0 0 0 0 0 0 0 0 0 0 0 0 0
0 0 0 0 0 0 0 0 0 0 0 0 0 0 0 0 0 0 0 0 0 0 0 0 0 0 0 0 0 0 0 0 0 0 0 0 0 0
0 0 0 0 0 0 0 0 0 0 0 0 0 0 0 0 0 0 0 0 0 0 0 0 0 0 0 0 0 0 0 0 0 0 0 0 0 0
0 0 0 0 0 0 0 0 0 0 0 0 0 0 0 0 0 0 0 0 0 0 0 0 0 0 0 0 0 0 0 0 0 0 0 0 0 0
0 0 0 0 0 0 0 0 0 0 0 0 0 0 0 0 0 0 0 0 0 0 0 0 0 0 0 0 0 0 0 0 0 0 0 0 0 0
0 0 0 0 0 0 0 0 0 0 0 0 0 0 0 0 0 0 0 0 0 0 0 0 0 0 0 0 0 0 0 0 0 0 0 0 0 0
Wind_Speed
10 10 8 7 8 8 8 8 8 8 8 7 6 6 6 4 1 2 3 6 10 11 12 12 12 13 15 17 19 20 21 20 19 19 20 20 19 18
10 10 8 7 7 7 7 8 8 8 8 5 6 8 8 7 6 2 2 5 8 11 13 13 13 13 15 16 18 20 21 21 21 22 23 21 19 18
12 10 9 9 8 7 7 8 8 7 9 8 7 8 8 7 6 4 2 2 4 8 11 13 13 13 14 16 17 19 21 22 22 23 23 22 21 20
12 9 8 7 9 8 7 8 8 7 8 9 7 6 7 6 6 5 3 2 2 5 9 10 11 12 13 14 15 17 19 20 21 22 22 22 22 23
11 8 8 8 8 8 9 8 7 8 7 7 7 6 5 5 5 5 3 2 2 2 4 6 8 10 11 12 14 15 16 17 18 19 19 21 23 23
9 8 7 8 8 9 8 8 8 8 7 6 6 5 5 5 4 3 2 2 2 2 4 6 8 9 11 13 15 16 17 18 18 18 19 20 20 20
9 8 8 10 13 10 8 7 7 6 6 5 5 5 4 4 3 2 2 2 1 2 4 4 5 6 7 13 17 20 22 24 24 24 23 22 21 20
8 7 8 9 12 14 15 14 14 9 7 5 4 5 6 6 5 4 2 3 2 2 5 5 5 7 6 6 16 22 24 25 26 26 26 24 23 22
7 6 7 9 10 6 9 13 13 17 15 8 6 6 7 8 8 5 3 2 2 3 6 6 5 7 6 10 18 21 23 24 24 25 25 24 23 21
7 5 6 7 7 7 7 7 8 10 12 9 8 8 9 9 8 5 3 1 3 2 3 7 6 8 8 9 17 21 23 23 23 23 24 23 22 21
8 8 8 5 10 14 9 8 8 9 14 18 19 17 20 21 16 5 1 3 4 3 3 5 7 8 8 8 12 20 22 22 22 22 22 21 20 18
8 9 13 11 15 17 9 8 9 8 9 11 13 15 14 17 22 12 6 2 4 3 3 4 5 6 6 6 6 7 12 19 22 21 19 18 16 9
7 7 9 18 19 20 15 10 14 11 8 8 9 10 10 11 12 12 11 6 4 3 2 3 4 4 6 5 5 6 7 8 9 11 13 15 14 10
7 6 10 21 21 21 16 19 21 15 8 8 9 10 11 11 10 10 12 12 10 8 6 4 5 5 7 6 5 4 5 6 6 6 5 10 12 12
8 16 18 21 18 14 21 22 16 10 9 10 10 10 9 10 9 9 10 10 13 14 12 10 7 6 6 7 7 5 5 4 5 5 4 4 4 3
8 13 18 19 15 16 16 13 10 10 9 9 9 8 8 9 10 10 10 9 10 12 14 14 12 10 9 9 8 7 5 5 4 5 5 4 3 3
8 6 7 7 8 8 8 8 8 9 9 9 8 8 9 9 10 9 9 9 10 10 10 10 12 13 14 10 8 8 7 6 5 4 3 3 2 1
10 6 7 7 8 8 8 7 7 8 8 8 8 8 8 8 8 8 9 9 9 9 9 8 5 6 8 12 14 8 7 6 4 4 3 3 2 2
7 5 5 5 6 6 6 6 6 6 6 6 7 7 7 7 7 8 8 8 8 9 9 9 8 6 7 7 7 11 6 4 4 3 3 3 1 1
3 3 4 4 4 4 4 4 4 4 5 5 5 5 6 6 6 6 7 8 7 7 8 8 9 8 6 5 5 5 9 5 4 3 2 2 2 4
3 3 2 3 3 3 3 3 3 3 3 3 4 4 4 4 5 5 6 10 8 6 7 6 6 8 4 4 5 4 4 7 5 2 2 2 2 3
2 2 2 2 2 2 2 2 2 2 3 3 3 3 3 3 3 4 4 4 4 4 4 4 5 6 5 5 4 3 2 3 4 3 1 2 1 1
2 2 2 2 2 1 1 2 2 2 1 1 1 2 2 2 2 2 3 3 3 3 3 3 3 3 3 3 3 2 2 2 2 2 2 3 4 8
Wind_Direction
306 303 304 305 305 303 300 297 289 286 288 296 302 316 329 319 281 198 211 230 233 234 236 233 229 225 219 212 206 202 199 194 189 188 191 193 190 184
307 304 307 308 307 307 305 302 292 282 278 289 299 308 318 317 312 300 247 259 248 236 233 231 228 224 220 213 206 201 197 191 188 189 191 190 182 171
310 308 310 314 314 312 310 308 304 294 283 285 287 298 307 312 313 303 278 264 257 242 233 228 225 223 220 215 207 200 195 191 188 189 190 184 173 158
312 311 314 317 317 316 312 307 305 304 293 291 292 296 296 302 299 296 282 259 244 238 227 223 219 216 212 207 202 195 189 185 183 184 182 173 160 152
313 317 317 316 317 315 312 310 310 309 299 288 287 288 285 293 294 289 272 243 218 185 191 195 195 192 191 189 185 179 173 170 170 169 161 153 150 148
315 314 313 313 311 313 314 318 316 313 309 299 289 287 281 282 271 259 254 221 185 138 112 112 122 131 144 150 148 143 139 136 135 134 132 131 133 134
313 314 315 327 332 336 335 338 337 332 328 321 314 315 311 310 289 274 240 197 150 137 116 102 98 99 105 116 118 122 121 119 118 117 115 114 113 115
313 318 325 337 341 351 354 8 10 7 358 350 344 343 337 327 312 296 240 186 172 147 121 100 94 95 87 94 111 114 115 116 116 115 113 111 109 109
318 329 341 345 352 351 6 19 15 16 21 13 0 354 344 337 319 299 273 217 145 149 126 105 92 92 88 102 109 111 112 113 114 115 115 113 111 109
336 343 344 336 353 27 30 27 21 16 18 19 15 7 1 351 326 290 268 172 95 71 109 112 102 89 82 88 101 106 109 110 112 113 114 113 112 111
351 0 351 346 27 49 42 29 24 17 18 24 24 23 18 17 15 3 21 149 129 73 29 96 110 89 66 60 85 98 104 107 109 111 111 111 111 107
359 358 6 32 53 58 45 32 32 19 15 14 17 16 15 17 24 22 10 112 128 97 14 84 117 107 84 39 44 70 91 99 102 104 106 108 109 105
7 5 16 42 51 52 49 41 41 35 18 18 15 14 14 16 19 21 20 27 69 72 32 87 102 88 103 102 47 48 74 86 88 92 93 95 97 103
17 17 30 43 44 45 45 42 41 35 24 24 24 20 16 13 11 18 26 34 41 48 31 56 99 115 120 110 107 83 72 78 89 90 84 88 86 90
22 37 44 45 40 36 38 40 37 32 27 28 26 20 13 9 11 17 24 34 42 41 35 45 77 97 98 117 123 129 105 80 83 93 88 81 80 79
22 32 38 40 40 38 36 32 27 31 32 27 22 17 14 17 22 21 26 28 43 43 37 43 54 75 91 98 112 115 107 115 103 92 88 79 72 74
35 26 26 26 29 27 29 29 27 25 28 23 21 21 22 24 25 25 30 38 46 47 43 44 55 65 67 77 97 99 101 98 94 87 88 83 64 76
39 26 27 26 26 25 25 25 25 25 22 23 21 21 23 25 27 27 34 40 46 42 37 32 48 74 75 55 45 88 93 93 89 79 77 91 76 49
32 21 22 23 23 21 18 18 19 17 16 21 23 19 21 25 30 33 33 39 44 45 39 32 31 53 88 92 54 43 73 78 77 70 61 66 64 334
14 15 13 14 17 16 13 11 9 12 12 14 18 18 19 24 29 30 35 41 43 47 47 42 40 42 58 82 95 63 54 65 64 62 44 23 336 307
356 0 2 3 5 6 3 1 0 4 7 5 14 17 17 25 29 27 33 47 51 48 50 41 25 32 40 65 81 71 49 57 66 77 51 22 358 347
323 327 327 331 335 339 339 345 346 351 0 6 7 10 12 21 27 30 34 39 41 45 47 32 21 36 49 70 80 70 39 11 3 350 264 217 176 2
280 282 285 290 290 290 304 317 321 320 327 337 346 357 5 13 15 22 28 36 42 38 39 35 29 42 53 64 72 60 32 7 1 1 336 313 286 275